owner,sensor,date,latitude,longitude,air_pressure(mBar),qcFlag 
ADCP,ioos:station:NOAA.NDBC:WDEL1:1,2010-06-01T00:30:00Z,28.6620,-89.5510,1014.9,11111222 
ADCP,ioos:station:NOAA.NDBC:WDEL1:1,2010-06-01T01:30:00Z,28.6620,-89.5510,1015.4,11111222 
ADCP,ioos:station:NOAA.NDBC:WDEL1:1,2010-06-01T02:30:00Z,28.6620,-89.5510,1015.6,11111222 
ADCP,ioos:station:NOAA.NDBC:WDEL1:1,2010-06-01T03:30:00Z,28.6620,-89.5510,1015.9,11111222 
ADCP,ioos:station:NOAA.NDBC:WDEL1:1,2010-06-01T04:30:00Z,28.6620,-89.5510,1016.2,11111222 
ADCP,ioos:station:NOAA.NDBC:WDEL1:1,2010-06-01T05:30:00Z,28.6620,-89.5510,1015.9,11111222 
ADCP,ioos:station:NOAA.NDBC:WDEL1:1,2010-06-01T06:30:00Z,28.6620,-89.5510,1015.5,11111222 
ADCP,ioos:station:NOAA.NDBC:WDEL1:1,2010-06-01T07:30:00Z,28.6620,-89.5510,1015.1,11111222 
ADCP,ioos:station:NOAA.NDBC:WDEL1:1,2010-06-01T08:30:00Z,28.6620,-89.5510,1015.2,11111222 
ADCP,ioos:station:NOAA.NDBC:WDEL1:1,2010-06-01T09:30:00Z,28.6620,-89.5510,1015.3,11111222 
ADCP,ioos:station:NOAA.NDBC:WDEL1:1,2010-06-01T10:30:00Z,28.6620,-89.5510,1015.4,11111222 
ADCP,ioos:station:NOAA.NDBC:WDEL1:1,2010-06-01T11:30:00Z,28.6620,-89.5510,1015.9,11111222 
ADCP,ioos:station:NOAA.NDBC:WDEL1:1,2010-06-01T12:30:00Z,28.6620,-89.5510,1016.3,11111222 
ADCP,ioos:station:NOAA.NDBC:WDEL1:1,2010-06-01T13:30:00Z,28.6620,-89.5510,1016.7,11111222 
ADCP,ioos:station:NOAA.NDBC:WDEL1:1,2010-06-01T14:30:00Z,28.6620,-89.5510,1016.8,11111222 
ADCP,ioos:station:NOAA.NDBC:WDEL1:1,2010-06-01T15:30:00Z,28.6620,-89.5510,1016.7,11111222 
ADCP,ioos:station:NOAA.NDBC:WDEL1:1,2010-06-01T16:30:00Z,28.6620,-89.5510,1016.8,11111222 
ADCP,ioos:station:NOAA.NDBC:WDEL1:1,2010-06-01T17:30:00Z,28.6620,-89.5510,1016.6,11111222 
ADCP,ioos:station:NOAA.NDBC:WDEL1:1,2010-06-01T18:30:00Z,28.6620,-89.5510,1015.9,11111222 
ADCP,ioos:station:NOAA.NDBC:WDEL1:1,2010-06-01T19:30:00Z,28.6620,-89.5510,1015.0,11111222 
ADCP,ioos:station:NOAA.NDBC:WDEL1:1,2010-06-01T20:30:00Z,28.6620,-89.5510,1014.2,11111222 
ADCP,ioos:station:NOAA.NDBC:WDEL1:1,2010-06-01T21:30:00Z,28.6620,-89.5510,1014.1,11111222 
ADCP,ioos:station:NOAA.NDBC:WDEL1:1,2010-06-01T22:30:00Z,28.6620,-89.5510,1013.6,11111222 
ADCP,ioos:station:NOAA.NDBC:WDEL1:1,2010-06-01T23:30:00Z,28.6620,-89.5510,1013.0,11111222 
ADCP,ioos:station:NOAA.NDBC:WDEL1:1,2010-06-02T00:30:00Z,28.6620,-89.5510,1013.2,11111222 
ADCP,ioos:station:NOAA.NDBC:WDEL1:1,2010-06-02T01:30:00Z,28.6620,-89.5510,1013.4,11111222 
ADCP,ioos:station:NOAA.NDBC:WDEL1:1,2010-06-02T02:30:00Z,28.6620,-89.5510,1013.9,11111222 
ADCP,ioos:station:NOAA.NDBC:WDEL1:1,2010-06-02T03:30:00Z,28.6620,-89.5510,1014.3,11111222 
ADCP,ioos:station:NOAA.NDBC:WDEL1:1,2010-06-02T04:30:00Z,28.6620,-89.5510,1013.8,11111222 
ADCP,ioos:station:NOAA.NDBC:WDEL1:1,2010-06-02T05:30:00Z,28.6620,-89.5510,1013.3,11111222 
ADCP,ioos:station:NOAA.NDBC:WDEL1:1,2010-06-02T06:30:00Z,28.6620,-89.5510,1012.5,11111222 
ADCP,ioos:station:NOAA.NDBC:WDEL1:1,2010-06-02T07:30:00Z,28.6620,-89.5510,1011.9,11111222 
ADCP,ioos:station:NOAA.NDBC:WDEL1:1,2010-06-02T08:30:00Z,28.6620,-89.5510,1011.6,11111222 
ADCP,ioos:station:NOAA.NDBC:WDEL1:1,2010-06-02T09:30:00Z,28.6620,-89.5510,1011.4,11111222 
ADCP,ioos:station:NOAA.NDBC:WDEL1:1,2010-06-02T10:30:00Z,28.6620,-89.5510,1011.8,11111222 
ADCP,ioos:station:NOAA.NDBC:WDEL1:1,2010-06-02T11:30:00Z,28.6620,-89.5510,1012.5,11111222 
ADCP,ioos:station:NOAA.NDBC:WDEL1:1,2010-06-02T12:30:00Z,28.6620,-89.5510,1012.9,11111222 
ADCP,ioos:station:NOAA.NDBC:WDEL1:1,2010-06-02T13:30:00Z,28.6620,-89.5510,1013.5,11111222 
ADCP,ioos:station:NOAA.NDBC:WDEL1:1,2010-06-02T14:30:00Z,28.6620,-89.5510,1013.6,11111222 
ADCP,ioos:station:NOAA.NDBC:WDEL1:1,2010-06-02T15:30:00Z,28.6620,-89.5510,1013.6,11111222 
ADCP,ioos:station:NOAA.NDBC:WDEL1:1,2010-06-02T16:30:00Z,28.6620,-89.5510,1013.8,11111222 
ADCP,ioos:station:NOAA.NDBC:WDEL1:1,2010-06-02T17:30:00Z,28.6620,-89.5510,1013.8,11111222 
ADCP,ioos:station:NOAA.NDBC:WDEL1:1,2010-06-02T18:30:00Z,28.6620,-89.5510,1013.7,11111222 
ADCP,ioos:station:NOAA.NDBC:WDEL1:1,2010-06-02T19:30:00Z,28.6620,-89.5510,1013.2,11111222 
ADCP,ioos:station:NOAA.NDBC:WDEL1:1,2010-06-02T20:30:00Z,28.6620,-89.5510,1012.7,11111222 
ADCP,ioos:station:NOAA.NDBC:WDEL1:1,2010-06-02T21:30:00Z,28.6620,-89.5510,1012.5,11111222 
ADCP,ioos:station:NOAA.NDBC:WDEL1:1,2010-06-02T22:30:00Z,28.6620,-89.5510,1011.5,11111222 
ADCP,ioos:station:NOAA.NDBC:WDEL1:1,2010-06-02T23:30:00Z,28.6620,-89.5510,1010.9,11111222 
ADCP,ioos:station:NOAA.NDBC:WDEL1:1,2010-06-03T00:30:00Z,28.6620,-89.5510,1010.6,11111222 
ADCP,ioos:station:NOAA.NDBC:WDEL1:1,2010-06-03T01:30:00Z,28.6620,-89.5510,1010.4,11111222 
ADCP,ioos:station:NOAA.NDBC:WDEL1:1,2010-06-03T02:30:00Z,28.6620,-89.5510,1010.5,11111222 
ADCP,ioos:station:NOAA.NDBC:WDEL1:1,2010-06-03T03:30:00Z,28.6620,-89.5510,1011.2,11111222 
ADCP,ioos:station:NOAA.NDBC:WDEL1:1,2010-06-03T04:30:00Z,28.6620,-89.5510,1011.1,11111222 
ADCP,ioos:station:NOAA.NDBC:WDEL1:1,2010-06-03T05:30:00Z,28.6620,-89.5510,1010.7,11111222 
ADCP,ioos:station:NOAA.NDBC:WDEL1:1,2010-06-03T06:30:00Z,28.6620,-89.5510,1010.3,11111222 
ADCP,ioos:station:NOAA.NDBC:WDEL1:1,2010-06-03T07:30:00Z,28.6620,-89.5510,1009.7,11111222 
ADCP,ioos:station:NOAA.NDBC:WDEL1:1,2010-06-03T08:30:00Z,28.6620,-89.5510,1009.5,11111222 
ADCP,ioos:station:NOAA.NDBC:WDEL1:1,2010-06-03T09:30:00Z,28.6620,-89.5510,1008.8,11111222 
ADCP,ioos:station:NOAA.NDBC:WDEL1:1,2010-06-03T10:30:00Z,28.6620,-89.5510,1009.1,11111222 
ADCP,ioos:station:NOAA.NDBC:WDEL1:1,2010-06-03T11:30:00Z,28.6620,-89.5510,1009.2,11111222 
ADCP,ioos:station:NOAA.NDBC:WDEL1:1,2010-06-03T12:30:00Z,28.6620,-89.5510,1009.6,11111222 
ADCP,ioos:station:NOAA.NDBC:WDEL1:1,2010-06-03T13:30:00Z,28.6620,-89.5510,1009.9,11111222 
ADCP,ioos:station:NOAA.NDBC:WDEL1:1,2010-06-03T14:30:00Z,28.6620,-89.5510,1010.1,11111222 
ADCP,ioos:station:NOAA.NDBC:WDEL1:1,2010-06-03T15:30:00Z,28.6620,-89.5510,1010.3,11111222 
ADCP,ioos:station:NOAA.NDBC:WDEL1:1,2010-06-03T16:30:00Z,28.6620,-89.5510,1009.9,11111222 
ADCP,ioos:station:NOAA.NDBC:WDEL1:1,2010-06-03T17:30:00Z,28.6620,-89.5510,1010.0,11111222 
ADCP,ioos:station:NOAA.NDBC:WDEL1:1,2010-06-03T18:30:00Z,28.6620,-89.5510,1009.6,11111222 
ADCP,ioos:station:NOAA.NDBC:WDEL1:1,2010-06-03T19:30:00Z,28.6620,-89.5510,1008.4,11111222 
ADCP,ioos:station:NOAA.NDBC:WDEL1:1,2010-06-03T20:30:00Z,28.6620,-89.5510,1008.6,11111222 
ADCP,ioos:station:NOAA.NDBC:WDEL1:1,2010-06-03T21:30:00Z,28.6620,-89.5510,1008.6,11111222 
ADCP,ioos:station:NOAA.NDBC:WDEL1:1,2010-06-03T22:30:00Z,28.6620,-89.5510,1007.6,11111222 
ADCP,ioos:station:NOAA.NDBC:WDEL1:1,2010-06-03T23:30:00Z,28.6620,-89.5510,1008.0,11111222 
ADCP,ioos:station:NOAA.NDBC:WDEL1:1,2010-06-04T00:30:00Z,28.6620,-89.5510,1007.8,11111222 
ADCP,ioos:station:NOAA.NDBC:WDEL1:1,2010-06-04T01:30:00Z,28.6620,-89.5510,1009.0,11111222 
ADCP,ioos:station:NOAA.NDBC:WDEL1:1,2010-06-04T02:30:00Z,28.6620,-89.5510,1009.1,11111222 
ADCP,ioos:station:NOAA.NDBC:WDEL1:1,2010-06-04T03:30:00Z,28.6620,-89.5510,1009.2,11111222 
ADCP,ioos:station:NOAA.NDBC:WDEL1:1,2010-06-04T04:30:00Z,28.6620,-89.5510,1009.8,11111222 
ADCP,ioos:station:NOAA.NDBC:WDEL1:1,2010-06-04T05:30:00Z,28.6620,-89.5510,1009.7,11111222 
ADCP,ioos:station:NOAA.NDBC:WDEL1:1,2010-06-04T06:30:00Z,28.6620,-89.5510,1009.8,11111222 
ADCP,ioos:station:NOAA.NDBC:WDEL1:1,2010-06-04T07:30:00Z,28.6620,-89.5510,1009.6,11111222 
ADCP,ioos:station:NOAA.NDBC:WDEL1:1,2010-06-04T08:30:00Z,28.6620,-89.5510,1009.7,11111222 
ADCP,ioos:station:NOAA.NDBC:WDEL1:1,2010-06-04T09:30:00Z,28.6620,-89.5510,1009.9,11111222 
ADCP,ioos:station:NOAA.NDBC:WDEL1:1,2010-06-04T10:30:00Z,28.6620,-89.5510,1010.2,11111222 
ADCP,ioos:station:NOAA.NDBC:WDEL1:1,2010-06-04T11:30:00Z,28.6620,-89.5510,1010.4,11111222 
ADCP,ioos:station:NOAA.NDBC:WDEL1:1,2010-06-04T12:30:00Z,28.6620,-89.5510,1011.2,11111222 
ADCP,ioos:station:NOAA.NDBC:WDEL1:1,2010-06-04T13:30:00Z,28.6620,-89.5510,1011.4,11111222 
ADCP,ioos:station:NOAA.NDBC:WDEL1:1,2010-06-04T14:30:00Z,28.6620,-89.5510,1012.1,11111222 
ADCP,ioos:station:NOAA.NDBC:WDEL1:1,2010-06-04T15:30:00Z,28.6620,-89.5510,1011.9,11111222 
ADCP,ioos:station:NOAA.NDBC:WDEL1:1,2010-06-04T16:30:00Z,28.6620,-89.5510,1012.1,11111222 
ADCP,ioos:station:NOAA.NDBC:WDEL1:1,2010-06-04T17:30:00Z,28.6620,-89.5510,1012.6,11111222 
ADCP,ioos:station:NOAA.NDBC:WDEL1:1,2010-06-04T18:30:00Z,28.6620,-89.5510,1014.2,11111222 
ADCP,ioos:station:NOAA.NDBC:WDEL1:1,2010-06-04T19:30:00Z,28.6620,-89.5510,1011.5,11111222 
ADCP,ioos:station:NOAA.NDBC:WDEL1:1,2010-06-04T20:30:00Z,28.6620,-89.5510,1011.2,11111222 
ADCP,ioos:station:NOAA.NDBC:WDEL1:1,2010-06-04T21:30:00Z,28.6620,-89.5510,1010.9,11111222 
ADCP,ioos:station:NOAA.NDBC:WDEL1:1,2010-06-04T22:30:00Z,28.6620,-89.5510,1010.7,11111222 
ADCP,ioos:station:NOAA.NDBC:WDEL1:1,2010-06-04T23:30:00Z,28.6620,-89.5510,1010.6,11111222 
ADCP,ioos:station:NOAA.NDBC:WDEL1:1,2010-06-05T00:30:00Z,28.6620,-89.5510,1011.1,11111222 
ADCP,ioos:station:NOAA.NDBC:WDEL1:1,2010-06-05T01:30:00Z,28.6620,-89.5510,1011.2,11111222 
ADCP,ioos:station:NOAA.NDBC:WDEL1:1,2010-06-05T02:30:00Z,28.6620,-89.5510,1011.2,11111222 
ADCP,ioos:station:NOAA.NDBC:WDEL1:1,2010-06-05T03:30:00Z,28.6620,-89.5510,1011.9,11111222 
ADCP,ioos:station:NOAA.NDBC:WDEL1:1,2010-06-05T04:30:00Z,28.6620,-89.5510,1012.5,11111222 
ADCP,ioos:station:NOAA.NDBC:WDEL1:1,2010-06-05T05:30:00Z,28.6620,-89.5510,1012.4,11111222 
ADCP,ioos:station:NOAA.NDBC:WDEL1:1,2010-06-05T06:30:00Z,28.6620,-89.5510,1012.4,11111222 
ADCP,ioos:station:NOAA.NDBC:WDEL1:1,2010-06-05T07:30:00Z,28.6620,-89.5510,1012.1,11111222 
ADCP,ioos:station:NOAA.NDBC:WDEL1:1,2010-06-05T08:30:00Z,28.6620,-89.5510,1011.9,11111222 
ADCP,ioos:station:NOAA.NDBC:WDEL1:1,2010-06-05T09:30:00Z,28.6620,-89.5510,1012.1,11111222 
ADCP,ioos:station:NOAA.NDBC:WDEL1:1,2010-06-05T10:30:00Z,28.6620,-89.5510,1012.3,11111222 
ADCP,ioos:station:NOAA.NDBC:WDEL1:1,2010-06-05T11:30:00Z,28.6620,-89.5510,1012.8,11111222 
ADCP,ioos:station:NOAA.NDBC:WDEL1:1,2010-06-05T12:30:00Z,28.6620,-89.5510,1013.0,11111222 
ADCP,ioos:station:NOAA.NDBC:WDEL1:1,2010-06-05T13:30:00Z,28.6620,-89.5510,1013.8,11111222 
ADCP,ioos:station:NOAA.NDBC:WDEL1:1,2010-06-05T14:30:00Z,28.6620,-89.5510,1014.3,11111222 
ADCP,ioos:station:NOAA.NDBC:WDEL1:1,2010-06-05T15:30:00Z,28.6620,-89.5510,1014.4,11111222 
ADCP,ioos:station:NOAA.NDBC:WDEL1:1,2010-06-05T16:30:00Z,28.6620,-89.5510,1014.4,11111222 
ADCP,ioos:station:NOAA.NDBC:WDEL1:1,2010-06-05T17:30:00Z,28.6620,-89.5510,1014.5,11111222 
ADCP,ioos:station:NOAA.NDBC:WDEL1:1,2010-06-05T18:30:00Z,28.6620,-89.5510,1014.2,11111222 
ADCP,ioos:station:NOAA.NDBC:WDEL1:1,2010-06-05T19:30:00Z,28.6620,-89.5510,1013.8,11111222 
ADCP,ioos:station:NOAA.NDBC:WDEL1:1,2010-06-05T20:30:00Z,28.6620,-89.5510,1013.2,11111222 
ADCP,ioos:station:NOAA.NDBC:WDEL1:1,2010-06-05T21:30:00Z,28.6620,-89.5510,1012.9,11111222 
ADCP,ioos:station:NOAA.NDBC:WDEL1:1,2010-06-05T22:30:00Z,28.6620,-89.5510,1012.7,11111222 
ADCP,ioos:station:NOAA.NDBC:WDEL1:1,2010-06-05T23:30:00Z,28.6620,-89.5510,1012.4,11111222 
ADCP,ioos:station:NOAA.NDBC:WDEL1:1,2010-06-06T00:30:00Z,28.6620,-89.5510,1012.6,11111222 
ADCP,ioos:station:NOAA.NDBC:WDEL1:1,2010-06-06T01:30:00Z,28.6620,-89.5510,1012.9,11111222 
ADCP,ioos:station:NOAA.NDBC:WDEL1:1,2010-06-06T02:30:00Z,28.6620,-89.5510,1013.2,11111222 
ADCP,ioos:station:NOAA.NDBC:WDEL1:1,2010-06-06T03:30:00Z,28.6620,-89.5510,1013.7,11111222 
ADCP,ioos:station:NOAA.NDBC:WDEL1:1,2010-06-06T04:30:00Z,28.6620,-89.5510,1014.1,11111222 
ADCP,ioos:station:NOAA.NDBC:WDEL1:1,2010-06-06T05:30:00Z,28.6620,-89.5510,1014.0,11111222 
ADCP,ioos:station:NOAA.NDBC:WDEL1:1,2010-06-06T06:30:00Z,28.6620,-89.5510,1013.8,11111222 
ADCP,ioos:station:NOAA.NDBC:WDEL1:1,2010-06-06T07:30:00Z,28.6620,-89.5510,1013.4,11111222 
ADCP,ioos:station:NOAA.NDBC:WDEL1:1,2010-06-06T08:30:00Z,28.6620,-89.5510,1012.7,11111222 
ADCP,ioos:station:NOAA.NDBC:WDEL1:1,2010-06-06T09:30:00Z,28.6620,-89.5510,1012.9,11111222 
ADCP,ioos:station:NOAA.NDBC:WDEL1:1,2010-06-06T10:30:00Z,28.6620,-89.5510,1013.6,11111222 
ADCP,ioos:station:NOAA.NDBC:WDEL1:1,2010-06-06T11:30:00Z,28.6620,-89.5510,1014.5,11111222 
ADCP,ioos:station:NOAA.NDBC:WDEL1:1,2010-06-06T12:30:00Z,28.6620,-89.5510,1014.7,11111222 
ADCP,ioos:station:NOAA.NDBC:WDEL1:1,2010-06-06T13:30:00Z,28.6620,-89.5510,1015.0,11111222 
ADCP,ioos:station:NOAA.NDBC:WDEL1:1,2010-06-06T14:30:00Z,28.6620,-89.5510,1015.3,11111222 
ADCP,ioos:station:NOAA.NDBC:WDEL1:1,2010-06-06T15:30:00Z,28.6620,-89.5510,1015.5,11111222 
ADCP,ioos:station:NOAA.NDBC:WDEL1:1,2010-06-06T16:30:00Z,28.6620,-89.5510,1015.6,11111222 
ADCP,ioos:station:NOAA.NDBC:WDEL1:1,2010-06-06T17:30:00Z,28.6620,-89.5510,1015.1,11111222 
ADCP,ioos:station:NOAA.NDBC:WDEL1:1,2010-06-06T18:30:00Z,28.6620,-89.5510,1015.0,11111222 
ADCP,ioos:station:NOAA.NDBC:WDEL1:1,2010-06-06T19:30:00Z,28.6620,-89.5510,1014.7,11111222 
ADCP,ioos:station:NOAA.NDBC:WDEL1:1,2010-06-06T20:30:00Z,28.6620,-89.5510,1014.1,11111222 
ADCP,ioos:station:NOAA.NDBC:WDEL1:1,2010-06-06T21:30:00Z,28.6620,-89.5510,1014.1,11111222 
ADCP,ioos:station:NOAA.NDBC:WDEL1:1,2010-06-06T22:30:00Z,28.6620,-89.5510,1014.4,11111222 
ADCP,ioos:station:NOAA.NDBC:WDEL1:1,2010-06-06T23:30:00Z,28.6620,-89.5510,1015.0,11111222 
ADCP,ioos:station:NOAA.NDBC:WDEL1:1,2010-06-07T00:30:00Z,28.6620,-89.5510,1014.4,11111222 
ADCP,ioos:station:NOAA.NDBC:WDEL1:1,2010-06-07T01:30:00Z,28.6620,-89.5510,1015.2,11111222 
ADCP,ioos:station:NOAA.NDBC:WDEL1:1,2010-06-07T02:30:00Z,28.6620,-89.5510,1014.8,11111222 
ADCP,ioos:station:NOAA.NDBC:WDEL1:1,2010-06-07T03:30:00Z,28.6620,-89.5510,1015.2,11111222 
ADCP,ioos:station:NOAA.NDBC:WDEL1:1,2010-06-07T04:30:00Z,28.6620,-89.5510,1014.6,11111222 
ADCP,ioos:station:NOAA.NDBC:WDEL1:1,2010-06-07T05:30:00Z,28.6620,-89.5510,1014.5,11111222 
ADCP,ioos:station:NOAA.NDBC:WDEL1:1,2010-06-07T06:30:00Z,28.6620,-89.5510,1014.7,11111222 
ADCP,ioos:station:NOAA.NDBC:WDEL1:1,2010-06-07T07:30:00Z,28.6620,-89.5510,1014.4,11111222 
ADCP,ioos:station:NOAA.NDBC:WDEL1:1,2010-06-07T08:30:00Z,28.6620,-89.5510,1014.5,11111222 
ADCP,ioos:station:NOAA.NDBC:WDEL1:1,2010-06-07T09:30:00Z,28.6620,-89.5510,1014.4,11111222 
ADCP,ioos:station:NOAA.NDBC:WDEL1:1,2010-06-07T10:30:00Z,28.6620,-89.5510,1014.8,11111222 
ADCP,ioos:station:NOAA.NDBC:WDEL1:1,2010-06-07T11:30:00Z,28.6620,-89.5510,1015.3,11111222 
ADCP,ioos:station:NOAA.NDBC:WDEL1:1,2010-06-07T12:30:00Z,28.6620,-89.5510,1015.8,11111222 
ADCP,ioos:station:NOAA.NDBC:WDEL1:1,2010-06-07T13:30:00Z,28.6620,-89.5510,1016.5,11111222 
ADCP,ioos:station:NOAA.NDBC:WDEL1:1,2010-06-07T14:30:00Z,28.6620,-89.5510,1016.8,11111222 
ADCP,ioos:station:NOAA.NDBC:WDEL1:1,2010-06-07T15:30:00Z,28.6620,-89.5510,1017.0,11111222 
ADCP,ioos:station:NOAA.NDBC:WDEL1:1,2010-06-07T16:30:00Z,28.6620,-89.5510,1017.1,11111222 
ADCP,ioos:station:NOAA.NDBC:WDEL1:1,2010-06-07T17:30:00Z,28.6620,-89.5510,1017.0,11111222 
ADCP,ioos:station:NOAA.NDBC:WDEL1:1,2010-06-07T18:30:00Z,28.6620,-89.5510,1016.7,11111222 
ADCP,ioos:station:NOAA.NDBC:WDEL1:1,2010-06-07T19:30:00Z,28.6620,-89.5510,1016.0,11111222 
ADCP,ioos:station:NOAA.NDBC:WDEL1:1,2010-06-07T20:30:00Z,28.6620,-89.5510,1015.7,11111222 
ADCP,ioos:station:NOAA.NDBC:WDEL1:1,2010-06-07T21:30:00Z,28.6620,-89.5510,1015.5,11111222 
ADCP,ioos:station:NOAA.NDBC:WDEL1:1,2010-06-07T22:30:00Z,28.6620,-89.5510,1015.0,11111222 
ADCP,ioos:station:NOAA.NDBC:WDEL1:1,2010-06-07T23:30:00Z,28.6620,-89.5510,1015.1,11111222 
ADCP,ioos:station:NOAA.NDBC:WDEL1:1,2010-06-08T00:30:00Z,28.6620,-89.5510,1015.3,11111222 
ADCP,ioos:station:NOAA.NDBC:WDEL1:1,2010-06-08T01:30:00Z,28.6620,-89.5510,1015.3,11111222 
ADCP,ioos:station:NOAA.NDBC:WDEL1:1,2010-06-08T02:30:00Z,28.6620,-89.5510,1015.5,11111222 
ADCP,ioos:station:NOAA.NDBC:WDEL1:1,2010-06-08T03:30:00Z,28.6620,-89.5510,1016.1,11111222 
ADCP,ioos:station:NOAA.NDBC:WDEL1:1,2010-06-08T04:30:00Z,28.6620,-89.5510,1016.0,11111222 
ADCP,ioos:station:NOAA.NDBC:WDEL1:1,2010-06-08T05:30:00Z,28.6620,-89.5510,1015.8,11111222 
ADCP,ioos:station:NOAA.NDBC:WDEL1:1,2010-06-08T06:30:00Z,28.6620,-89.5510,1015.6,11111222 
ADCP,ioos:station:NOAA.NDBC:WDEL1:1,2010-06-08T07:30:00Z,28.6620,-89.5510,1015.1,11111222 
ADCP,ioos:station:NOAA.NDBC:WDEL1:1,2010-06-08T08:30:00Z,28.6620,-89.5510,1014.9,11111222 
ADCP,ioos:station:NOAA.NDBC:WDEL1:1,2010-06-08T09:30:00Z,28.6620,-89.5510,1014.9,11111222 
ADCP,ioos:station:NOAA.NDBC:WDEL1:1,2010-06-08T10:30:00Z,28.6620,-89.5510,1015.2,11111222 
ADCP,ioos:station:NOAA.NDBC:WDEL1:1,2010-06-08T11:30:00Z,28.6620,-89.5510,1015.7,11111222 
ADCP,ioos:station:NOAA.NDBC:WDEL1:1,2010-06-08T12:30:00Z,28.6620,-89.5510,1016.6,11111222 
ADCP,ioos:station:NOAA.NDBC:WDEL1:1,2010-06-08T13:30:00Z,28.6620,-89.5510,1017.4,11111222 
ADCP,ioos:station:NOAA.NDBC:WDEL1:1,2010-06-08T14:30:00Z,28.6620,-89.5510,1018.0,11111222 
ADCP,ioos:station:NOAA.NDBC:WDEL1:1,2010-06-08T15:30:00Z,28.6620,-89.5510,1018.5,11111222 
ADCP,ioos:station:NOAA.NDBC:WDEL1:1,2010-06-08T16:30:00Z,28.6620,-89.5510,1018.6,11111222 
ADCP,ioos:station:NOAA.NDBC:WDEL1:1,2010-06-08T17:30:00Z,28.6620,-89.5510,1018.4,11111222 
ADCP,ioos:station:NOAA.NDBC:WDEL1:1,2010-06-08T18:30:00Z,28.6620,-89.5510,1017.9,11111222 
ADCP,ioos:station:NOAA.NDBC:WDEL1:1,2010-06-08T19:30:00Z,28.6620,-89.5510,1017.2,11111222 
ADCP,ioos:station:NOAA.NDBC:WDEL1:1,2010-06-08T20:30:00Z,28.6620,-89.5510,1016.9,11111222 
ADCP,ioos:station:NOAA.NDBC:WDEL1:1,2010-06-08T21:30:00Z,28.6620,-89.5510,1016.5,11111222 
ADCP,ioos:station:NOAA.NDBC:WDEL1:1,2010-06-08T22:30:00Z,28.6620,-89.5510,1016.3,11111222 
ADCP,ioos:station:NOAA.NDBC:WDEL1:1,2010-06-08T23:30:00Z,28.6620,-89.5510,1015.9,11111222 
ADCP,ioos:station:NOAA.NDBC:WDEL1:1,2010-06-09T00:30:00Z,28.6620,-89.5510,1016.2,11111222 
ADCP,ioos:station:NOAA.NDBC:WDEL1:1,2010-06-09T01:30:00Z,28.6620,-89.5510,1016.6,11111222 
ADCP,ioos:station:NOAA.NDBC:WDEL1:1,2010-06-09T02:30:00Z,28.6620,-89.5510,1016.8,11111222 
ADCP,ioos:station:NOAA.NDBC:WDEL1:1,2010-06-09T03:30:00Z,28.6620,-89.5510,1017.1,11111222 
ADCP,ioos:station:NOAA.NDBC:WDEL1:1,2010-06-09T04:30:00Z,28.6620,-89.5510,1017.2,11111222 
ADCP,ioos:station:NOAA.NDBC:WDEL1:1,2010-06-09T05:30:00Z,28.6620,-89.5510,1016.9,11111222 
ADCP,ioos:station:NOAA.NDBC:WDEL1:1,2010-06-09T06:30:00Z,28.6620,-89.5510,1016.6,11111222 
ADCP,ioos:station:NOAA.NDBC:WDEL1:1,2010-06-09T07:30:00Z,28.6620,-89.5510,1016.4,11111222 
ADCP,ioos:station:NOAA.NDBC:WDEL1:1,2010-06-09T08:30:00Z,28.6620,-89.5510,1016.6,11111222 
ADCP,ioos:station:NOAA.NDBC:WDEL1:1,2010-06-09T09:30:00Z,28.6620,-89.5510,1016.8,11111222 
ADCP,ioos:station:NOAA.NDBC:WDEL1:1,2010-06-09T10:30:00Z,28.6620,-89.5510,1017.0,11111222 
ADCP,ioos:station:NOAA.NDBC:WDEL1:1,2010-06-09T11:30:00Z,28.6620,-89.5510,1017.4,11111222 
ADCP,ioos:station:NOAA.NDBC:WDEL1:1,2010-06-09T12:30:00Z,28.6620,-89.5510,1017.7,11111222 
ADCP,ioos:station:NOAA.NDBC:WDEL1:1,2010-06-09T13:30:00Z,28.6620,-89.5510,1018.0,11111222 
ADCP,ioos:station:NOAA.NDBC:WDEL1:1,2010-06-09T14:30:00Z,28.6620,-89.5510,1018.3,11111222 
ADCP,ioos:station:NOAA.NDBC:WDEL1:1,2010-06-09T15:30:00Z,28.6620,-89.5510,1018.3,11111222 
ADCP,ioos:station:NOAA.NDBC:WDEL1:1,2010-06-09T16:30:00Z,28.6620,-89.5510,1018.5,11111222 
ADCP,ioos:station:NOAA.NDBC:WDEL1:1,2010-06-09T17:30:00Z,28.6620,-89.5510,1018.5,11111222 
ADCP,ioos:station:NOAA.NDBC:WDEL1:1,2010-06-09T18:30:00Z,28.6620,-89.5510,1018.3,11111222 
ADCP,ioos:station:NOAA.NDBC:WDEL1:1,2010-06-09T19:30:00Z,28.6620,-89.5510,1017.7,11111222 
ADCP,ioos:station:NOAA.NDBC:WDEL1:1,2010-06-09T20:30:00Z,28.6620,-89.5510,1017.0,11111222 
ADCP,ioos:station:NOAA.NDBC:WDEL1:1,2010-06-09T21:30:00Z,28.6620,-89.5510,1016.4,11111222 
ADCP,ioos:station:NOAA.NDBC:WDEL1:1,2010-06-09T22:30:00Z,28.6620,-89.5510,1016.1,11111222 
ADCP,ioos:station:NOAA.NDBC:WDEL1:1,2010-06-09T23:30:00Z,28.6620,-89.5510,1015.9,11111222 
ADCP,ioos:station:NOAA.NDBC:WDEL1:1,2010-06-10T00:30:00Z,28.6620,-89.5510,1015.8,11111222 
ADCP,ioos:station:NOAA.NDBC:WDEL1:1,2010-06-10T01:30:00Z,28.6620,-89.5510,1015.9,11111222 
ADCP,ioos:station:NOAA.NDBC:WDEL1:1,2010-06-10T02:30:00Z,28.6620,-89.5510,1016.3,11111222 
ADCP,ioos:station:NOAA.NDBC:WDEL1:1,2010-06-10T03:30:00Z,28.6620,-89.5510,1016.4,11111222 
ADCP,ioos:station:NOAA.NDBC:WDEL1:1,2010-06-10T04:30:00Z,28.6620,-89.5510,1016.7,11111222 
ADCP,ioos:station:NOAA.NDBC:WDEL1:1,2010-06-10T05:30:00Z,28.6620,-89.5510,1016.6,11111222 
ADCP,ioos:station:NOAA.NDBC:WDEL1:1,2010-06-10T06:30:00Z,28.6620,-89.5510,1016.2,11111222 
ADCP,ioos:station:NOAA.NDBC:WDEL1:1,2010-06-10T07:30:00Z,28.6620,-89.5510,1015.8,11111222 
ADCP,ioos:station:NOAA.NDBC:WDEL1:1,2010-06-10T08:30:00Z,28.6620,-89.5510,1015.4,11111222 
ADCP,ioos:station:NOAA.NDBC:WDEL1:1,2010-06-10T09:30:00Z,28.6620,-89.5510,1015.6,11111222 
ADCP,ioos:station:NOAA.NDBC:WDEL1:1,2010-06-10T10:30:00Z,28.6620,-89.5510,1016.1,11111222 
ADCP,ioos:station:NOAA.NDBC:WDEL1:1,2010-06-10T11:30:00Z,28.6620,-89.5510,1016.3,11111222 
ADCP,ioos:station:NOAA.NDBC:WDEL1:1,2010-06-10T12:30:00Z,28.6620,-89.5510,1016.7,11111222 
ADCP,ioos:station:NOAA.NDBC:WDEL1:1,2010-06-10T13:30:00Z,28.6620,-89.5510,1017.1,11111222 
ADCP,ioos:station:NOAA.NDBC:WDEL1:1,2010-06-10T14:30:00Z,28.6620,-89.5510,1017.6,11111222 
ADCP,ioos:station:NOAA.NDBC:WDEL1:1,2010-06-10T15:30:00Z,28.6620,-89.5510,1017.4,11111222 
ADCP,ioos:station:NOAA.NDBC:WDEL1:1,2010-06-10T16:30:00Z,28.6620,-89.5510,1017.3,11111222 
ADCP,ioos:station:NOAA.NDBC:WDEL1:1,2010-06-10T17:30:00Z,28.6620,-89.5510,1017.2,11111222 
ADCP,ioos:station:NOAA.NDBC:WDEL1:1,2010-06-10T18:30:00Z,28.6620,-89.5510,1016.7,11111222 
ADCP,ioos:station:NOAA.NDBC:WDEL1:1,2010-06-10T19:30:00Z,28.6620,-89.5510,1016.3,11111222 
ADCP,ioos:station:NOAA.NDBC:WDEL1:1,2010-06-10T20:30:00Z,28.6620,-89.5510,1015.9,11111222 
ADCP,ioos:station:NOAA.NDBC:WDEL1:1,2010-06-10T21:30:00Z,28.6620,-89.5510,1015.6,11111222 
ADCP,ioos:station:NOAA.NDBC:WDEL1:1,2010-06-10T22:30:00Z,28.6620,-89.5510,1014.9,11111222 
ADCP,ioos:station:NOAA.NDBC:WDEL1:1,2010-06-10T23:30:00Z,28.6620,-89.5510,1014.5,11111222 
ADCP,ioos:station:NOAA.NDBC:WDEL1:1,2010-06-11T00:30:00Z,28.6620,-89.5510,1014.9,11111222 
ADCP,ioos:station:NOAA.NDBC:WDEL1:1,2010-06-11T01:30:00Z,28.6620,-89.5510,1015.1,11111222 
ADCP,ioos:station:NOAA.NDBC:WDEL1:1,2010-06-11T02:30:00Z,28.6620,-89.5510,1015.4,11111222 
ADCP,ioos:station:NOAA.NDBC:WDEL1:1,2010-06-11T03:30:00Z,28.6620,-89.5510,1015.6,11111222 
ADCP,ioos:station:NOAA.NDBC:WDEL1:1,2010-06-11T04:30:00Z,28.6620,-89.5510,1016.1,11111222 
ADCP,ioos:station:NOAA.NDBC:WDEL1:1,2010-06-11T05:30:00Z,28.6620,-89.5510,1016.1,11111222 
ADCP,ioos:station:NOAA.NDBC:WDEL1:1,2010-06-11T06:30:00Z,28.6620,-89.5510,1015.5,11111222 
ADCP,ioos:station:NOAA.NDBC:WDEL1:1,2010-06-11T07:30:00Z,28.6620,-89.5510,1015.6,11111222 
ADCP,ioos:station:NOAA.NDBC:WDEL1:1,2010-06-11T08:30:00Z,28.6620,-89.5510,1015.3,11111222 
ADCP,ioos:station:NOAA.NDBC:WDEL1:1,2010-06-11T09:30:00Z,28.6620,-89.5510,1015.7,11111222 
ADCP,ioos:station:NOAA.NDBC:WDEL1:1,2010-06-11T10:30:00Z,28.6620,-89.5510,1015.8,11111222 
ADCP,ioos:station:NOAA.NDBC:WDEL1:1,2010-06-11T11:30:00Z,28.6620,-89.5510,1016.5,11111222 
ADCP,ioos:station:NOAA.NDBC:WDEL1:1,2010-06-11T12:30:00Z,28.6620,-89.5510,1016.9,11111222 
ADCP,ioos:station:NOAA.NDBC:WDEL1:1,2010-06-11T13:30:00Z,28.6620,-89.5510,1017.3,11111222 
ADCP,ioos:station:NOAA.NDBC:WDEL1:1,2010-06-11T14:30:00Z,28.6620,-89.5510,1017.9,11111222 
ADCP,ioos:station:NOAA.NDBC:WDEL1:1,2010-06-11T15:30:00Z,28.6620,-89.5510,1018.0,11111222 
ADCP,ioos:station:NOAA.NDBC:WDEL1:1,2010-06-11T16:30:00Z,28.6620,-89.5510,1018.2,11111222 
ADCP,ioos:station:NOAA.NDBC:WDEL1:1,2010-06-11T17:30:00Z,28.6620,-89.5510,1018.3,11111222 
ADCP,ioos:station:NOAA.NDBC:WDEL1:1,2010-06-11T18:30:00Z,28.6620,-89.5510,1018.2,11111222 
ADCP,ioos:station:NOAA.NDBC:WDEL1:1,2010-06-11T19:30:00Z,28.6620,-89.5510,1017.9,11111222 
ADCP,ioos:station:NOAA.NDBC:WDEL1:1,2010-06-11T20:30:00Z,28.6620,-89.5510,1017.6,11111222 
ADCP,ioos:station:NOAA.NDBC:WDEL1:1,2010-06-11T21:30:00Z,28.6620,-89.5510,1017.4,11111222 
ADCP,ioos:station:NOAA.NDBC:WDEL1:1,2010-06-11T22:30:00Z,28.6620,-89.5510,1017.4,11111222 